Station YATA2 - 9453220 - Yakutat, Yakutat Bay, AK Image indicating link to RSS feed of recent meteorological observations for station YATA2


Conditions at YATA2 as of
(6:18 pm AKDT on 07/22/2024)
0218 GMT on 07/23/2024:
     

Click on the graph icon in the table below to see a time series plot of the last five days of that observation.

5-day plot - Atmospheric Pressure Atmospheric Pressure (PRES):30.08 in
5-day plot - Water Temperature Water Temperature (WTMP): 54.1 °F
NOS Water Level Observation Network Water Level
Previous observations
TIME
(AKDT)
5-day plot - Wind Direction
WDIR
 
5-day plot - Wind Speed
WSPD
kts
5-day plot - Wind Gust
GST
kts
5-day plot - Wave Height
WVHT
ft
5-day plot - Dominant Wave Period
DPD
sec
5-day plot - Average Wave Period
APD
sec
5-day plot - Mean Wave Direction
MWD
 
5-day plot - Atmospheric Pressure
PRES
in
5-day plot - Pressure Tendency
PTDY
in
5-day plot - Air Temperature
ATMP
°F
5-day plot - Water Temperature
WTMP
°F
5-day plot - Dew Point
DEWP
°F
5-day plot - Salinity
SAL
psu
5-day plot - Visibility
VIS
nmi
5-day plot - Tide (above MLLW)
TIDE
ft
2024-07-22 06:12 pm-------30.09-- 54.1----
2024-07-22 06:06 pm-------30.09-- 54.1----
2024-07-22 06:00 pm-------30.09-0.01- 54.3----
2024-07-22 05:54 pm-------30.09-- 54.3----
2024-07-22 05:48 pm-------30.09-- 54.3----
2024-07-22 05:42 pm-------30.09-- 54.5----
2024-07-22 05:36 pm-------30.09-- 54.5----
2024-07-22 05:30 pm-------30.09-- 54.5----
2024-07-22 05:24 pm-------30.09-- 54.7----
2024-07-22 05:18 pm-------30.09-- 54.7----
2024-07-22 05:12 pm-------30.09-- 54.7----
2024-07-22 05:06 pm-------30.08-- 54.7----
2024-07-22 05:00 pm-------30.09-0.03- 54.9----
2024-07-22 04:54 pm-------30.09-- 54.9----
2024-07-22 04:48 pm-------30.09-- 54.9----
2024-07-22 04:42 pm-------30.09-- 55.0----
2024-07-22 04:36 pm-------30.09-- 55.0----
2024-07-22 04:30 pm-------30.09-- 55.2----
2024-07-22 04:24 pm-------30.09-- 55.2----
2024-07-22 04:18 pm-------30.09-- 55.4----
2024-07-22 04:12 pm-------30.09-- 55.4----
2024-07-22 04:06 pm-------30.09-- 55.6----
2024-07-22 04:00 pm-------30.09-0.03- 55.6----
2024-07-22 03:54 pm-------30.09-- 55.6----
2024-07-22 03:48 pm-------30.09-- 55.8----
2024-07-22 03:42 pm-------30.09-- 55.8----
2024-07-22 03:36 pm-------30.09-- 55.8----
2024-07-22 03:30 pm-------30.09-- 55.8----
2024-07-22 03:24 pm-------30.09-- 55.8----
2024-07-22 03:18 pm-------30.09-- 55.8----
2024-07-22 03:12 pm-------30.10-- 55.8----
2024-07-22 03:06 pm-------30.10-- 55.8----
2024-07-22 03:00 pm-------30.10-0.02- 55.8----
2024-07-22 02:54 pm-------30.10-- 55.6----
2024-07-22 02:48 pm-------30.10-- 55.6----
2024-07-22 02:42 pm-------30.10-- 55.6----
2024-07-22 02:36 pm-------30.10-- 55.6----
2024-07-22 02:30 pm-------30.10-- 55.6----
2024-07-22 02:24 pm-------30.11-- 55.4----
2024-07-22 02:18 pm-------30.11-- 55.4----
2024-07-22 02:12 pm-------30.11-- 55.2----
2024-07-22 02:06 pm-------30.11-- 54.9----
2024-07-22 02:00 pm-------30.11-0.01- 54.7----
2024-07-22 01:54 pm-------30.11-- 54.0----
2024-07-22 01:48 pm-------30.11-- 53.2----
2024-07-22 01:42 pm-------30.11-- 52.5----
2024-07-22 01:36 pm-------30.11-- 52.0----
2024-07-22 01:30 pm-------30.11-- 51.6----
2024-07-22 01:24 pm-------30.11-- 51.6----
2024-07-22 01:18 pm-------30.11-- 51.6----
2024-07-22 01:12 pm-------30.11-- 51.6----
2024-07-22 01:06 pm-------30.12-- 51.6----
2024-07-22 01:00 pm-------30.12+0.00- 51.6----
2024-07-22 12:54 pm-------30.12-- 51.6----
2024-07-22 12:48 pm-------30.12-- 51.6----
2024-07-22 12:42 pm-------30.12-- 51.8----
2024-07-22 12:36 pm-------30.12-- 51.8----
2024-07-22 12:30 pm-------30.12-- 52.0----
2024-07-22 12:24 pm-------30.12-- 52.2----
2024-07-22 12:18 pm-------30.12-- 52.5----
2024-07-22 12:12 pm-------30.12-- 53.1----
2024-07-22 12:06 pm-------30.12-- 53.6----
2024-07-22 12:00 pm-------30.12+0.00- 54.3----
2024-07-22 11:54 am-------30.12-- 55.2----
2024-07-22 11:48 am-------30.12-- 55.8----
2024-07-22 11:42 am-------30.12-- 56.1----
2024-07-22 11:36 am-------30.12-- 56.3----
2024-07-22 11:30 am-------30.12-- 56.5----
2024-07-22 11:24 am-------30.12-- 56.7----
2024-07-22 11:18 am-------30.12-- 56.7----
2024-07-22 11:12 am-------30.12-- 56.7----
2024-07-22 11:06 am-------30.12-- 56.7----
2024-07-22 11:00 am-------30.12+0.00- 56.8----
2024-07-22 10:54 am-------30.12-- 56.8----
2024-07-22 10:48 am-------30.12-- 56.8----
2024-07-22 10:42 am-------30.12-- 57.0----
2024-07-22 10:36 am-------30.12-- 57.0----
2024-07-22 10:30 am-------30.12-- 57.0----
2024-07-22 10:24 am-------30.12-- 57.0----
2024-07-22 10:18 am-------30.12-- 57.0----
2024-07-22 10:12 am-------30.12-- 57.0----
2024-07-22 10:06 am-------30.12-- 57.0----
2024-07-22 10:00 am-------30.12+0.00- 57.0----
2024-07-22 09:54 am-------30.12-- 57.0----
2024-07-22 09:48 am-------30.13-- 57.0----
2024-07-22 09:42 am-------30.13-- 57.0----
2024-07-22 09:36 am-------30.13-- 57.0----
2024-07-22 09:30 am-------30.13-- 57.0----
2024-07-22 09:24 am-------30.13-- 57.0----
2024-07-22 09:18 am-------30.12-- 57.0----
2024-07-22 09:12 am-------30.12-- 57.0----
2024-07-22 09:06 am-------30.12-- 57.0----
2024-07-22 09:00 am-------30.12+0.00- 57.0----
2024-07-22 08:54 am-------30.12-- 57.0----
2024-07-22 08:48 am-------30.12-- 57.0----
2024-07-22 08:42 am-------30.12-- 57.0----
2024-07-22 08:36 am-------30.12-- 57.0----
2024-07-22 08:30 am-------30.12-- 57.0----
2024-07-22 08:24 am-------30.12-- 56.8----
2024-07-22 08:18 am-------30.12-- 56.8----
2024-07-22 08:12 am-------30.12-- 56.8----
2024-07-22 08:06 am-------30.12-- 56.8----
2024-07-22 08:00 am-------30.12+0.00- 56.8----
2024-07-22 07:54 am-------30.12-- 56.7----
2024-07-22 07:48 am-------30.12-- 56.7----
2024-07-22 07:42 am-------30.12-- 56.7----
2024-07-22 07:36 am-------30.11-- 56.5----
2024-07-22 07:30 am-------30.11-- 56.5----
2024-07-22 07:24 am-------30.12-- 56.5----
2024-07-22 07:18 am-------30.12-- 56.5----
2024-07-22 07:12 am-------30.12-- 56.5----
2024-07-22 07:06 am-------30.12-- 56.3----
2024-07-22 07:00 am-------30.12+0.00- 56.3----
2024-07-22 06:54 am-------30.12-- 56.1----
2024-07-22 06:48 am-------30.12-- 56.1----
2024-07-22 06:42 am-------30.12-- 55.9----
2024-07-22 06:36 am-------30.12-- 55.8----
2024-07-22 06:30 am-------30.12-- 55.8----
2024-07-22 06:24 am-------30.12-- 55.8----
2024-07-22 06:18 am-------30.12-- 55.8----
2024-07-22 06:12 am-------30.12-- 55.8----
2024-07-22 06:06 am-------30.12-- 55.8----
2024-07-22 06:00 am-------30.12+0.00- 55.6----
2024-07-22 05:54 am-------30.12-- 55.6----
2024-07-22 05:48 am-------30.12-- 55.4----
2024-07-22 05:42 am-------30.12-- 55.4----
2024-07-22 05:36 am-------30.12-- 55.4----
2024-07-22 05:30 am-------30.12-- 55.4----
2024-07-22 05:24 am-------30.12-- 55.4----
2024-07-22 05:18 am-------30.12-- 55.6----
2024-07-22 05:12 am-------30.12-- 55.6----
2024-07-22 05:06 am-------30.11-- 55.6----
2024-07-22 05:00 am-------30.11+0.00- 55.8----
2024-07-22 04:54 am-------30.12-- 55.8----
2024-07-22 04:48 am-------30.12-- 55.8----
2024-07-22 04:42 am-------30.12-- 55.8----
2024-07-22 04:36 am-------30.12-- 55.8----
2024-07-22 04:30 am-------30.12-- 55.8----
2024-07-22 04:24 am-------30.12-- 55.8----
2024-07-22 04:18 am-------30.12-- 55.8----
2024-07-22 04:12 am-------30.12-- 55.8----
2024-07-22 04:06 am-------30.12-- 55.8----
2024-07-22 04:00 am-------30.12+0.00- 55.8----
2024-07-22 03:54 am-------30.12-- 55.6----
2024-07-22 03:48 am-------30.12-- 55.6----
2024-07-22 03:42 am-------30.12-- 55.6----
2024-07-22 03:36 am-------30.12-- 55.4----
2024-07-22 03:30 am-------30.12-- 55.4----
2024-07-22 03:24 am-------30.12-- 55.2----
2024-07-22 03:18 am-------30.12-- 55.2----
2024-07-22 03:12 am-------30.12-- 55.0----
2024-07-22 03:06 am-------30.12-- 55.0----
2024-07-22 03:00 am-------30.12+0.00- 55.0----
2024-07-22 02:54 am-------30.12-- 54.9----
2024-07-22 02:48 am-------30.12-- 54.9----
2024-07-22 02:42 am-------30.12-- 54.9----
2024-07-22 02:36 am-------30.12-- 54.9----
2024-07-22 02:30 am-------30.11-- 54.9----
2024-07-22 02:24 am-------30.11-- 54.9----
2024-07-22 02:18 am-------30.11-- 54.9----
2024-07-22 02:12 am-------30.12-- 54.9----
2024-07-22 02:06 am-------30.11-- 54.9----
2024-07-22 02:00 am-------30.11+0.01- 54.9----
2024-07-22 01:54 am-------30.12-- 54.9----
2024-07-22 01:48 am-------30.12-- 54.9----
2024-07-22 01:42 am-------30.12-- 54.9----
2024-07-22 01:36 am-------30.12-- 54.9----
2024-07-22 01:30 am-------30.12-- 54.9----
2024-07-22 01:24 am-------30.12-- 54.9----
2024-07-22 01:18 am-------30.12-- 54.9----
2024-07-22 01:12 am-------30.11-- 54.9----
2024-07-22 01:06 am-------30.11-- 54.7----
2024-07-22 01:00 am-------30.11+0.00- 54.5----
2024-07-22 12:54 am-------30.11-- 54.3----
2024-07-22 12:48 am-------30.11-- 54.1----
2024-07-22 12:42 am-------30.11-- 54.1----
2024-07-22 12:36 am-------30.12-- 54.1----
2024-07-22 12:30 am-------30.12-- 54.1----
2024-07-22 12:24 am-------30.12-- 54.1----
2024-07-22 12:18 am-------30.12-- 54.1----
2024-07-22 12:12 am-------30.12-- 54.1----
2024-07-22 12:06 am-------30.12-- 54.1----
2024-07-22 12:00 am-------30.12+0.03- 54.1----
2024-07-21 11:54 pm-------30.11-- 53.8----
2024-07-21 11:48 pm-------30.11-- 53.6----
2024-07-21 11:42 pm-------30.11-- 52.7----
2024-07-21 11:36 pm-------30.11-- 52.0----
2024-07-21 11:30 pm-------30.11-- 52.0----
2024-07-21 11:24 pm-------30.12-- 52.2----
2024-07-21 11:18 pm-------30.12-- 52.3----
2024-07-21 11:12 pm-------30.11-- 52.7----
2024-07-21 11:06 pm-------30.11-- 53.2----
2024-07-21 11:00 pm-------30.11+0.02- 53.8----
2024-07-21 10:54 pm-------30.11-- 54.1----
2024-07-21 10:48 pm-------30.11-- 54.3----
2024-07-21 10:42 pm-------30.11-- 54.5----
2024-07-21 10:36 pm-------30.11-- 54.7----
2024-07-21 10:30 pm-------30.12-- 54.9----
2024-07-21 10:24 pm-------30.11-- 55.2----
2024-07-21 10:18 pm-------30.11-- 55.8----
2024-07-21 10:12 pm-------30.11-- 56.1----
2024-07-21 10:06 pm-------30.11-- 56.5----
2024-07-21 10:00 pm-------30.11+0.02- 56.5----
2024-07-21 09:54 pm-------30.11-- 56.7----
2024-07-21 09:48 pm-------30.11-- 56.7----
2024-07-21 09:42 pm-------30.11-- 56.7----
2024-07-21 09:36 pm-------30.10-- 56.8----
2024-07-21 09:30 pm-------30.10-- 56.8----
2024-07-21 09:24 pm-------30.10-- 56.8----
2024-07-21 09:18 pm-------30.10-- 56.8----
2024-07-21 09:12 pm-------30.10-- 56.8----
2024-07-21 09:06 pm-------30.09-- 56.8----
2024-07-21 09:00 pm-------30.09+0.00- 56.8----
2024-07-21 08:54 pm-------30.09-- 56.8----
2024-07-21 08:48 pm-------30.09-- 56.8----
2024-07-21 08:42 pm-------30.09-- 56.8----
2024-07-21 08:36 pm-------30.09-- 56.8----
2024-07-21 08:30 pm---------- 56.7----
2024-07-21 08:24 pm---------- 56.7----
2024-07-21 08:18 pm-------30.09-- 56.7----
2024-07-21 08:12 pm-------30.09-- 56.7----
2024-07-21 08:06 pm-------30.09-- 56.5----
2024-07-21 08:00 pm-------30.09+0.01- 56.5----
2024-07-21 07:54 pm-------30.09-- 56.3----
2024-07-21 07:48 pm-------30.09-- 56.1----
2024-07-21 07:42 pm-------30.09-- 55.9----
2024-07-21 07:36 pm-------30.09-- 55.6----
2024-07-21 07:30 pm-------30.09-- 54.9----
2024-07-21 07:24 pm-------30.09-- 54.1----
2024-07-21 07:18 pm-------30.09-- 53.4----
2024-07-21 07:12 pm-------30.09-- 53.4----
2024-07-21 07:06 pm-------30.09-- 53.4----
2024-07-21 07:00 pm-------30.09+0.03- 53.2----
2024-07-21 06:54 pm-------30.09-- 53.2----